N238 EGLC-LSZH

Flight info

Callsign N238
Flight time N/A
Altitude 5000
Route SOQQA M87 UMTUM L9 KONAN UL607 REMBA DCT LIRSU DCT KRH M150 LAMGO T721 RILAX
Aircraft C172/L-SFG/C

Departure

Time 2026-04-28 00:45
Airport London City Airport (EGLC)

Arrival

Time N/A
Airport Zürich Airport (LSZH)
Time Latitude Longitude Altitude Speed Heading
2026-04-28 00:32 51.50450 0.04363 20 ft 0 kts 174°
2026-04-28 00:40 51.50435 0.04365 31 ft 123 kts 173°
2026-04-28 00:41 51.50457 0.04361 20 ft 0 kts 173°
2026-04-28 00:41 51.50454 0.04360 20 ft 6 kts 205°
2026-04-28 00:41 51.50506 0.04252 19 ft 18 kts 264°
2026-04-28 00:41 51.50528 0.04093 19 ft 13 kts 315°
2026-04-28 00:42 51.50552 0.04081 20 ft 6 kts 95°
2026-04-28 00:42 51.50529 0.04163 18 ft 0 kts 81°
2026-04-28 00:42 51.50529 0.04164 18 ft 2 kts 80°
2026-04-28 00:43 51.50617 0.04170 18 ft 10 kts 359°
2026-04-28 00:43 51.50616 0.04222 18 ft 10 kts 94°
2026-04-28 00:43 51.50611 0.04555 24 ft 44 kts 88°
2026-04-28 00:43 51.50601 0.04947 26 ft 27 kts 105°
2026-04-28 00:44 51.50501 0.05054 24 ft 12 kts 144°
2026-04-28 00:44 51.50506 0.05039 25 ft 14 kts 341°
2026-04-28 00:44 51.50530 0.05288 22 ft 48 kts 94°
2026-04-28 00:44 51.50487 0.05965 123 ft 66 kts 89°
2026-04-28 00:45 51.50509 0.06700 276 ft 72 kts 77°
2026-04-28 00:45 51.50585 0.07464 484 ft 76 kts 73°
2026-04-28 00:45 51.50631 0.08308 698 ft 73 kts 76°
2026-04-28 00:45 51.50754 0.09325 642 ft 108 kts 75°
2026-04-28 00:46 51.50861 0.10578 648 ft 119 kts 94°
2026-04-28 00:46 51.50911 0.11838 639 ft 116 kts 58°
2026-04-28 00:46 51.51351 0.12898 638 ft 115 kts 47°
2026-04-28 00:46 51.51956 0.13720 624 ft 115 kts 32°
2026-04-28 00:47 51.52661 0.14298 640 ft 115 kts 27°
2026-04-28 00:47 51.53380 0.14865 646 ft 113 kts 27°
2026-04-28 00:47 51.54068 0.15381 792 ft 108 kts 25°
2026-04-28 00:47 51.54744 0.15883 937 ft 106 kts 27°
2026-04-28 00:48 51.55286 0.16615 1104 ft 104 kts 51°
2026-04-28 00:48 51.55587 0.17666 1263 ft 105 kts 75°
2026-04-28 00:48 51.55704 0.18806 1417 ft 102 kts 75°
2026-04-28 00:48 51.55823 0.19901 1568 ft 100 kts 73°
2026-04-28 00:49 51.55931 0.20922 1731 ft 96 kts 74°
2026-04-28 00:49 51.56042 0.21962 1913 ft 94 kts 73°
2026-04-28 00:49 51.56150 0.22966 2088 ft 94 kts 73°
2026-04-28 00:49 51.56265 0.24033 2277 ft 94 kts 75°
2026-04-28 00:50 51.56484 0.24977 2450 ft 90 kts 59°
2026-04-28 00:50 51.56752 0.25883 2626 ft 89 kts 60°
2026-04-28 00:50 51.57017 0.26777 2804 ft 89 kts 60°
2026-04-28 00:50 51.57286 0.27686 2985 ft 88 kts 59°
2026-04-28 00:51 51.57542 0.28557 3153 ft 87 kts 60°
2026-04-28 00:51 51.57803 0.29440 3332 ft 87 kts 59°
2026-04-28 00:51 51.58062 0.30317 3512 ft 86 kts 60°
2026-04-28 00:51 51.58321 0.31195 3689 ft 85 kts 60°
2026-04-28 00:52 51.58570 0.32039 3862 ft 84 kts 60°
2026-04-28 00:52 51.58820 0.32886 4033 ft 83 kts 60°
2026-04-28 00:52 51.59064 0.33712 4210 ft 82 kts 60°
2026-04-28 00:52 51.59311 0.34547 4389 ft 82 kts 60°
2026-04-28 00:53 51.59556 0.35379 4570 ft 82 kts 59°
2026-04-28 00:53 51.59802 0.36212 4740 ft 83 kts 59°
2026-04-28 00:53 51.60048 0.37050 4926 ft 83 kts 59°
2026-04-28 00:53 51.60292 0.37879 5102 ft 81 kts 59°
2026-04-28 00:54 51.60530 0.38693 5278 ft 80 kts 59°
2026-04-28 00:54 51.60610 0.39571 5447 ft 83 kts 89°
2026-04-28 00:54 51.60521 0.40479 5620 ft 81 kts 88°
2026-04-28 00:54 51.60430 0.41382 5795 ft 79 kts 88°
2026-04-28 00:55 51.60345 0.42237 5965 ft 77 kts 88°
2026-04-28 00:55 51.60261 0.43079 6137 ft 75 kts 88°
2026-04-28 00:55 51.60181 0.43888 6301 ft 72 kts 87°
2026-04-28 00:55 51.60102 0.44673 6448 ft 70 kts 87°
2026-04-28 00:56 51.60028 0.45429 6588 ft 67 kts 87°
2026-04-28 00:56 51.59950 0.46223 6625 ft 80 kts 90°
2026-04-28 00:56 51.59855 0.47163 6689 ft 90 kts 90°
2026-04-28 00:56 51.59748 0.48211 6755 ft 100 kts 91°
2026-04-28 00:57 51.59632 0.49351 6800 ft 107 kts 91°
2026-04-28 00:57 51.59508 0.50566 6837 ft 112 kts 92°
2026-04-28 00:57 51.59382 0.51802 6869 ft 115 kts 92°
2026-04-28 00:57 51.59251 0.53083 6897 ft 117 kts 92°
2026-04-28 00:58 51.59119 0.54387 6924 ft 118 kts 92°
2026-04-28 00:58 51.58986 0.55699 6949 ft 119 kts 92°
2026-04-28 00:58 51.58734 0.56987 6977 ft 126 kts 116°
2026-04-28 00:58 51.58080 0.57979 7009 ft 134 kts 147°
2026-04-28 00:59 51.57165 0.58366 7045 ft 138 kts 169°
2026-04-28 00:59 51.56215 0.58603 7078 ft 139 kts 168°
2026-04-28 00:59 51.55272 0.58840 7094 ft 139 kts 168°
2026-04-28 00:59 51.54319 0.59080 7118 ft 138 kts 168°
2026-04-28 01:00 51.53367 0.59321 7142 ft 138 kts 168°
2026-04-28 01:00 51.52416 0.59561 7175 ft 138 kts 168°
2026-04-28 01:00 51.51467 0.59802 7222 ft 137 kts 168°
2026-04-28 01:00 51.50525 0.60041 7271 ft 136 kts 168°
2026-04-28 01:01 51.49585 0.60279 7321 ft 136 kts 168°
2026-04-28 01:01 51.48663 0.60511 7364 ft 135 kts 168°
2026-04-28 01:01 51.47735 0.60746 7417 ft 135 kts 168°
2026-04-28 01:01 51.46812 0.60979 7467 ft 135 kts 168°
2026-04-28 01:02 51.45880 0.61215 7517 ft 135 kts 168°
2026-04-28 01:02 51.44958 0.61448 7566 ft 135 kts 168°
2026-04-28 01:02 51.44027 0.61683 7617 ft 135 kts 168°
2026-04-28 01:02 51.43100 0.61916 7664 ft 135 kts 168°
2026-04-28 01:03 51.42170 0.62150 7715 ft 135 kts 168°
2026-04-28 01:03 51.41248 0.62387 7764 ft 134 kts 166°
2026-04-28 01:03 51.40453 0.63056 7801 ft 127 kts 129°
2026-04-28 01:03 51.39895 0.64126 7852 ft 125 kts 122°
2026-04-28 01:04 51.39356 0.65193 7901 ft 124 kts 122°
2026-04-28 01:04 51.38814 0.66265 7951 ft 124 kts 122°
2026-04-28 01:04 51.38268 0.67343 8002 ft 124 kts 122°
2026-04-28 01:04 51.37726 0.68415 8053 ft 124 kts 122°
2026-04-28 01:05 51.37181 0.69492 8105 ft 125 kts 122°
2026-04-28 01:05 51.36635 0.70570 8155 ft 125 kts 122°
2026-04-28 01:05 51.36087 0.71653 8206 ft 125 kts 122°
2026-04-28 01:05 51.35542 0.72728 8256 ft 124 kts 122°
2026-04-28 01:06 51.34997 0.73803 8307 ft 124 kts 122°
2026-04-28 01:06 51.34452 0.74876 8361 ft 124 kts 122°
2026-04-28 01:06 51.33907 0.75949 8409 ft 124 kts 122°
2026-04-28 01:06 51.33547 0.76660 8445 ft 124 kts 123°
2026-04-28 01:07 51.33000 0.77738 8492 ft 125 kts 124°
2026-04-28 01:07 51.32450 0.78820 8601 ft 125 kts 124°
2026-04-28 01:07 51.31901 0.79899 8651 ft 125 kts 124°
2026-04-28 01:07 51.31349 0.80985 8702 ft 126 kts 124°
2026-04-28 01:08 51.30795 0.82074 8751 ft 126 kts 124°
2026-04-28 01:08 51.30243 0.83160 8800 ft 126 kts 124°
2026-04-28 01:08 51.29690 0.84246 8851 ft 126 kts 124°
2026-04-28 01:08 51.29142 0.85320 8899 ft 126 kts 124°
2026-04-28 01:09 51.28593 0.86399 8947 ft 125 kts 124°
2026-04-28 01:09 51.28041 0.87480 8995 ft 125 kts 124°
2026-04-28 01:09 51.27492 0.88557 9048 ft 125 kts 124°
2026-04-28 01:09 51.26942 0.89636 9094 ft 125 kts 124°
2026-04-28 01:10 51.26391 0.90716 9143 ft 125 kts 124°
2026-04-28 01:10 51.25841 0.91793 9192 ft 126 kts 124°
2026-04-28 01:10 51.25289 0.92873 9240 ft 125 kts 124°
2026-04-28 01:10 51.24738 0.93951 9275 ft 125 kts 124°
2026-04-28 01:11 51.24185 0.95032 9317 ft 125 kts 124°
2026-04-28 01:11 51.23632 0.96114 9372 ft 126 kts 123°
2026-04-28 01:11 51.23078 0.97197 9428 ft 126 kts 126°
2026-04-28 01:11 51.22522 0.98282 9478 ft 127 kts 124°
2026-04-28 01:12 51.21962 0.99375 9533 ft 127 kts 124°
2026-04-28 01:12 51.21402 1.00470 9582 ft 128 kts 123°
2026-04-28 01:12 51.20856 1.01563 9637 ft 126 kts 118°
2026-04-28 01:12 51.20612 1.02845 9683 ft 120 kts 95°
2026-04-28 01:13 51.20436 1.04163 9737 ft 120 kts 96°
2026-04-28 01:13 51.20099 1.06746 9843 ft 119 kts 96°
2026-04-28 01:13 51.19929 1.08045 9894 ft 120 kts 93°
2026-04-28 01:14 51.19761 1.09341 9948 ft 119 kts 94°
2026-04-28 01:14 51.19592 1.10630 10003 ft 119 kts 93°
2026-04-28 01:14 51.19422 1.11927 10057 ft 119 kts 96°
2026-04-28 01:14 51.19253 1.13214 10110 ft 119 kts 95°
2026-04-28 01:15 51.19084 1.14507 10159 ft 119 kts 93°
2026-04-28 01:15 51.18914 1.15794 10205 ft 119 kts 94°
2026-04-28 01:15 51.18745 1.17084 10256 ft 118 kts 94°
2026-04-28 01:15 51.18577 1.18365 10306 ft 118 kts 96°
2026-04-28 01:16 51.18408 1.19649 10355 ft 118 kts 94°
2026-04-28 01:16 51.18240 1.20928 10405 ft 118 kts 96°
2026-04-28 01:16 51.18070 1.22211 10454 ft 118 kts 96°
2026-04-28 01:16 51.17901 1.23500 10504 ft 119 kts 94°
2026-04-28 01:17 51.17733 1.24772 10553 ft 119 kts 94°
2026-04-28 01:17 51.17562 1.26064 10603 ft 119 kts 95°
2026-04-28 01:17 51.17391 1.27354 10654 ft 119 kts 94°
2026-04-28 01:17 51.17220 1.28644 10701 ft 119 kts 96°
2026-04-28 01:18 51.17050 1.29932 10754 ft 119 kts 97°
2026-04-28 01:18 51.16879 1.31215 10803 ft 118 kts 94°
2026-04-28 01:18 51.16708 1.32498 10852 ft 118 kts 97°
2026-04-28 01:18 51.16538 1.33788 10900 ft 119 kts 94°
2026-04-28 01:19 51.16367 1.35072 10948 ft 119 kts 95°
2026-04-28 01:19 51.16225 1.36362 10995 ft 117 kts 88°
2026-04-28 01:19 51.16174 1.37651 11045 ft 116 kts 89°
2026-04-28 01:19 51.16113 1.38937 11094 ft 116 kts 89°
2026-04-28 01:20 51.16053 1.40193 11140 ft 115 kts 85°
2026-04-28 01:20 51.15992 1.41477 11190 ft 114 kts 86°
2026-04-28 01:20 51.15932 1.42722 11227 ft 116 kts 91°
2026-04-28 01:20 51.15871 1.44008 11276 ft 116 kts 93°
2026-04-28 01:21 51.15812 1.45280 11327 ft 116 kts 90°
2026-04-28 01:21 51.15751 1.46558 11382 ft 115 kts 92°
2026-04-28 01:21 51.15690 1.47834 11437 ft 115 kts 92°
2026-04-28 01:21 51.15627 1.49109 11475 ft 115 kts 92°
2026-04-28 01:22 51.15568 1.50374 11524 ft 114 kts 91°
2026-04-28 01:22 51.15507 1.51633 11570 ft 113 kts 91°
2026-04-28 01:22 51.15448 1.52860 11611 ft 112 kts 90°
2026-04-28 01:22 51.15388 1.54095 11658 ft 110 kts 92°
2026-04-28 01:23 51.15330 1.55299 11721 ft 109 kts 92°
2026-04-28 01:23 51.15272 1.56503 11762 ft 109 kts 90°
2026-04-28 01:23 51.15213 1.57708 11810 ft 109 kts 90°
2026-04-28 01:23 51.15153 1.58915 11857 ft 108 kts 92°
2026-04-28 01:24 51.15095 1.60105 11909 ft 107 kts 90°
2026-04-28 01:24 51.15038 1.61290 11952 ft 106 kts 92°
2026-04-28 01:24 51.14981 1.62458 11995 ft 105 kts 91°
2026-04-28 01:24 51.14924 1.63605 12041 ft 104 kts 89°
2026-04-28 01:25 51.14868 1.64727 12094 ft 101 kts 92°
2026-04-28 01:25 51.14815 1.65836 12127 ft 100 kts 90°
2026-04-28 01:25 51.14762 1.66926 12164 ft 97 kts 93°
2026-04-28 01:25 51.14711 1.67969 12209 ft 93 kts 91°
2026-04-28 01:26 51.14661 1.68983 12237 ft 88 kts 92°
2026-04-28 01:26 51.14617 1.69926 12259 ft 83 kts 91°
2026-04-28 01:26 51.14579 1.70840 11982 ft 92 kts 89°
2026-04-28 01:26 51.14524 1.71813 11736 ft 85 kts 92°
2026-04-28 01:27 51.14474 1.72794 11437 ft 85 kts 90°
2026-04-28 01:27 51.14427 1.73753 11119 ft 89 kts 89°
2026-04-28 01:27 51.14378 1.74699 10855 ft 84 kts 86°
2026-04-28 01:27 51.14328 1.75657 10576 ft 82 kts 87°
2026-04-28 01:28 51.14283 1.76579 10275 ft 82 kts 91°
2026-04-28 01:28 51.14238 1.77502 9918 ft 85 kts 92°
2026-04-28 01:28 51.14188 1.78430 9628 ft 82 kts 92°
2026-04-28 01:28 51.14145 1.79336 9290 ft 84 kts 91°
2026-04-28 01:29 51.14098 1.80241 8993 ft 81 kts 94°
2026-04-28 01:29 51.14052 1.81115 8696 ft 78 kts 91°
2026-04-28 01:29 51.14009 1.81968 8375 ft 77 kts 93°
2026-04-28 01:29 51.13967 1.82808 8070 ft 75 kts 94°
2026-04-28 01:30 51.13925 1.83624 7764 ft 74 kts 94°
2026-04-28 01:30 51.13883 1.84426 7470 ft 71 kts 95°
2026-04-28 01:30 51.13844 1.85221 7173 ft 69 kts 96°
2026-04-28 01:30 51.13804 1.85975 6882 ft 66 kts 97°
2026-04-28 01:31 51.13769 1.86707 6569 ft 66 kts 96°
2026-04-28 01:31 51.13730 1.87444 6242 ft 66 kts 95°
2026-04-28 01:31 51.13690 1.88147 5953 ft 61 kts 93°
2026-04-28 01:31 51.13658 1.88864 5620 ft 65 kts 90°
2026-04-28 01:32 51.13620 1.89547 5376 ft 60 kts 92°
2026-04-28 01:32 51.13587 1.90201 5104 ft 58 kts 89°
2026-04-28 01:32 51.13548 1.90886 4885 ft 67 kts 90°
2026-04-28 01:32 51.13497 1.91699 4929 ft 80 kts 90°
2026-04-28 01:33 51.13459 1.92488 5160 ft 69 kts 89°
2026-04-28 01:33 51.13418 1.93337 5157 ft 88 kts 90°
2026-04-28 01:33 51.13363 1.94392 5116 ft 101 kts 92°
2026-04-28 01:33 51.13302 1.95549 5127 ft 106 kts 92°
2026-04-28 01:34 51.13240 1.96723 5159 ft 107 kts 91°
2026-04-28 01:34 51.13179 1.97898 5187 ft 108 kts 92°
2026-04-28 01:34 51.13116 1.99088 5214 ft 108 kts 91°
2026-04-28 01:34 51.13053 2.00283 5241 ft 108 kts 92°
2026-04-28 01:35 51.12990 2.01481 5265 ft 109 kts 91°
2026-04-28 01:35 51.12926 2.02686 5293 ft 109 kts 92°
2026-04-28 01:35 51.12863 2.03901 5315 ft 110 kts 92°
2026-04-28 01:35 51.12798 2.05111 5342 ft 110 kts 92°
2026-04-28 01:36 51.12733 2.06315 5370 ft 109 kts 91°
2026-04-28 01:36 51.12669 2.07526 5395 ft 108 kts 91°
2026-04-28 01:36 51.12606 2.08724 5399 ft 109 kts 92°
2026-04-28 01:36 51.12542 2.09926 5423 ft 109 kts 92°
2026-04-28 01:37 51.12477 2.11140 5450 ft 110 kts 92°
2026-04-28 01:37 51.12413 2.12338 5479 ft 109 kts 92°
2026-04-28 01:37 51.12348 2.13549 5502 ft 110 kts 92°
2026-04-28 01:37 51.12283 2.14750 5530 ft 108 kts 92°
2026-04-28 01:38 51.12219 2.15943 5546 ft 109 kts 92°
2026-04-28 01:38 51.12153 2.17157 5581 ft 109 kts 92°
2026-04-28 01:38 51.12088 2.18365 5605 ft 111 kts 92°
2026-04-28 01:38 51.12022 2.19591 5634 ft 110 kts 92°
2026-04-28 01:39 51.11956 2.20799 5660 ft 109 kts 93°
2026-04-28 01:39 51.11890 2.22008 5686 ft 109 kts 92°
2026-04-28 01:39 51.11825 2.23208 5711 ft 109 kts 92°
2026-04-28 01:39 51.11760 2.24411 5733 ft 110 kts 93°
2026-04-28 01:40 51.11694 2.25618 5762 ft 110 kts 92°
2026-04-28 01:40 51.11629 2.26810 5788 ft 110 kts 93°
2026-04-28 01:40 51.11561 2.28023 5813 ft 110 kts 92°
2026-04-28 01:40 51.11496 2.29221 5864 ft 108 kts 93°
2026-04-28 01:41 51.11430 2.30404 5916 ft 106 kts 92°
2026-04-28 01:41 51.11366 2.31577 5963 ft 106 kts 93°
2026-04-28 01:41 51.11302 2.32752 6017 ft 106 kts 94°
2026-04-28 01:41 51.11237 2.33932 6065 ft 108 kts 93°
2026-04-28 01:42 51.11171 2.35120 6119 ft 108 kts 94°
2026-04-28 01:42 51.11104 2.36309 6171 ft 107 kts 94°
2026-04-28 01:42 51.11039 2.37492 6221 ft 108 kts 93°
2026-04-28 01:42 51.10972 2.38685 6273 ft 108 kts 93°
2026-04-28 01:43 51.10906 2.39873 6325 ft 109 kts 94°
2026-04-28 01:43 51.10839 2.41069 6381 ft 109 kts 93°
2026-04-28 01:43 51.10771 2.42278 6432 ft 110 kts 94°
2026-04-28 01:43 51.10702 2.43493 6488 ft 110 kts 93°
2026-04-28 01:44 51.10634 2.44708 6539 ft 111 kts 94°
2026-04-28 01:44 51.10565 2.45905 6591 ft 109 kts 93°
2026-04-28 01:44 51.10497 2.47126 6635 ft 110 kts 94°
2026-04-28 01:44 51.10428 2.48351 6684 ft 111 kts 93°
2026-04-28 01:45 51.10360 2.49551 6726 ft 111 kts 94°
2026-04-28 01:45 51.10290 2.50779 6776 ft 111 kts 94°
2026-04-28 01:45 51.10220 2.52003 6837 ft 110 kts 93°
2026-04-28 01:45 51.10151 2.53205 6905 ft 108 kts 92°
2026-04-28 01:46 51.10084 2.54385 6981 ft 106 kts 92°
2026-04-28 01:46 51.10019 2.55535 7049 ft 106 kts 93°
2026-04-28 01:46 51.09952 2.56698 7130 ft 106 kts 93°
2026-04-28 01:46 51.09884 2.57884 7204 ft 106 kts 92°
2026-04-28 01:47 51.09818 2.59035 7278 ft 106 kts 92°
2026-04-28 01:47 51.09751 2.60200 7349 ft 106 kts 93°
2026-04-28 01:47 51.09683 2.61371 7426 ft 106 kts 92°
2026-04-28 01:47 51.09615 2.62531 7503 ft 105 kts 91°
2026-04-28 01:48 51.09548 2.63696 7574 ft 106 kts 92°
2026-04-28 01:48 51.09481 2.64855 7645 ft 106 kts 93°
2026-04-28 01:48 51.09312 2.66005 7713 ft 107 kts 104°
2026-04-28 01:48 51.09108 2.67142 7794 ft 107 kts 101°
2026-04-28 01:49 51.08905 2.68273 7875 ft 108 kts 103°
2026-04-28 01:49 51.08698 2.69415 7949 ft 107 kts 101°
2026-04-28 01:49 51.08491 2.70558 8026 ft 107 kts 101°
2026-04-28 01:49 51.08284 2.71705 8101 ft 108 kts 100°
2026-04-28 01:50 51.08077 2.72852 8176 ft 108 kts 102°
2026-04-28 01:50 51.07868 2.74006 8254 ft 109 kts 102°
2026-04-28 01:50 51.07661 2.75155 8332 ft 109 kts 101°
2026-04-28 01:50 51.07453 2.76305 8407 ft 108 kts 102°
2026-04-28 01:51 51.07244 2.77458 8485 ft 108 kts 100°
2026-04-28 01:51 51.07036 2.78606 8561 ft 108 kts 101°
2026-04-28 01:51 51.06827 2.79760 8637 ft 109 kts 102°
2026-04-28 01:51 51.06618 2.80916 8716 ft 108 kts 101°
2026-04-28 01:52 51.06409 2.82068 8798 ft 109 kts 102°
2026-04-28 01:52 51.06199 2.83220 8877 ft 108 kts 102°
2026-04-28 01:52 51.05993 2.84374 8956 ft 109 kts 103°
2026-04-28 01:52 51.05780 2.85540 9032 ft 110 kts 103°
2026-04-28 01:53 51.05567 2.86704 9109 ft 110 kts 102°
2026-04-28 01:53 51.05355 2.87868 9191 ft 110 kts 103°
2026-04-28 01:53 51.05140 2.89041 9271 ft 110 kts 103°
2026-04-28 01:53 51.04927 2.90208 9350 ft 110 kts 104°
2026-04-28 01:54 51.04714 2.91377 9423 ft 110 kts 104°
2026-04-28 01:54 51.04574 2.92148 9473 ft 110 kts 103°
2026-04-28 01:54 51.04361 2.93308 9551 ft 109 kts 104°
2026-04-28 01:54 51.04151 2.94462 9632 ft 109 kts 103°
2026-04-28 01:55 51.03941 2.95614 9713 ft 108 kts 103°
2026-04-28 01:55 51.03662 2.97138 9818 ft 108 kts 103°
2026-04-28 01:55 51.03521 2.97908 9882 ft 106 kts 104°
2026-04-28 01:55 51.03318 2.99015 9989 ft 105 kts 104°
2026-04-28 01:56 51.03116 3.00119 10091 ft 103 kts 104°
2026-04-28 01:56 51.02916 3.01211 10186 ft 102 kts 104°
2026-04-28 01:56 51.02717 3.02295 10284 ft 101 kts 102°
2026-04-28 01:56 51.02521 3.03360 10373 ft 100 kts 102°
2026-04-28 01:57 51.02326 3.04423 10469 ft 100 kts 102°
2026-04-28 01:57 51.02133 3.05478 10563 ft 99 kts 102°
2026-04-28 01:57 51.01940 3.06525 10658 ft 98 kts 104°
2026-04-28 01:57 51.01749 3.07559 10753 ft 97 kts 103°
2026-04-28 01:58 51.01563 3.08570 10848 ft 96 kts 101°
2026-04-28 01:58 51.01376 3.09592 10937 ft 94 kts 104°
2026-04-28 01:58 51.01195 3.10574 11035 ft 93 kts 101°
2026-04-28 01:58 51.01015 3.11555 11130 ft 92 kts 101°
2026-04-28 01:59 51.00838 3.12516 11221 ft 90 kts 103°
2026-04-28 01:59 51.00666 3.13455 11312 ft 87 kts 101°
2026-04-28 01:59 51.00497 3.14368 11404 ft 85 kts 102°
2026-04-28 01:59 51.00335 3.15247 11486 ft 81 kts 102°
2026-04-28 02:00 51.00182 3.16086 11565 ft 75 kts 97°
2026-04-28 02:00 51.00044 3.16850 11591 ft 70 kts 97°
2026-04-28 02:00 50.99894 3.17676 11304 ft 75 kts 101°
2026-04-28 02:00 50.99737 3.18509 11045 ft 76 kts 102°
2026-04-28 02:01 50.99582 3.19334 10790 ft 76 kts 102°
2026-04-28 02:01 50.99431 3.20146 10540 ft 77 kts 102°
2026-04-28 02:01 50.99281 3.20962 10287 ft 77 kts 103°
2026-04-28 02:01 50.99128 3.21780 10037 ft 77 kts 103°
2026-04-28 02:02 50.98980 3.22589 9772 ft 76 kts 102°
2026-04-28 02:02 50.98831 3.23386 9517 ft 75 kts 103°
2026-04-28 02:02 50.98683 3.24177 9260 ft 74 kts 99°
2026-04-28 02:02 50.98540 3.24954 9001 ft 73 kts 101°
2026-04-28 02:03 50.98395 3.25728 8737 ft 73 kts 99°
2026-04-28 02:03 50.98253 3.26491 8486 ft 73 kts 102°
2026-04-28 02:03 50.98113 3.27244 8245 ft 72 kts 103°
2026-04-28 02:03 50.97971 3.28007 8010 ft 69 kts 101°
2026-04-28 02:04 50.97831 3.28759 7750 ft 71 kts 104°
2026-04-28 02:04 50.97694 3.29488 7516 ft 68 kts 99°
2026-04-28 02:04 50.97556 3.30230 7266 ft 68 kts 97°
2026-04-28 02:04 50.97427 3.30933 7024 ft 68 kts 100°
2026-04-28 02:05 50.97298 3.31623 6796 ft 67 kts 99°
2026-04-28 02:05 50.97168 3.32322 6553 ft 67 kts 101°
2026-04-28 02:05 50.97037 3.33021 6310 ft 65 kts 98°
2026-04-28 02:05 50.96909 3.33704 6066 ft 65 kts 97°
2026-04-28 02:06 50.96781 3.34390 5819 ft 65 kts 99°
2026-04-28 02:06 50.96655 3.35073 5589 ft 64 kts 98°
2026-04-28 02:06 50.96527 3.35750 5355 ft 63 kts 95°
2026-04-28 02:06 50.96401 3.36424 5124 ft 63 kts 96°
2026-04-28 02:07 50.96278 3.37086 4892 ft 63 kts 97°
2026-04-28 02:07 50.96155 3.37747 4651 ft 62 kts 96°
2026-04-28 02:07 50.96032 3.38395 4419 ft 62 kts 94°
2026-04-28 02:07 50.95908 3.39051 4185 ft 62 kts 95°
2026-04-28 02:08 50.95787 3.39703 3954 ft 62 kts 97°
2026-04-28 02:08 50.95667 3.40352 3718 ft 62 kts 100°
2026-04-28 02:08 50.95547 3.41000 3494 ft 62 kts 98°
2026-04-28 02:08 50.95425 3.41646 3270 ft 60 kts 96°
2026-04-28 02:09 50.95303 3.42281 3050 ft 59 kts 92°
2026-04-28 02:09 50.95185 3.42906 2827 ft 59 kts 96°
2026-04-28 02:09 50.95072 3.43526 2604 ft 59 kts 100°
2026-04-28 02:09 50.94959 3.44132 2387 ft 56 kts 96°
2026-04-28 02:10 50.94846 3.44711 2156 ft 54 kts 89°
2026-04-28 02:10 50.94735 3.45284 1925 ft 53 kts 91°
2026-04-28 02:10 50.94627 3.45854 1676 ft 56 kts 99°
2026-04-28 02:10 50.94524 3.46439 1419 ft 61 kts 107°
2026-04-28 02:11 50.94406 3.47053 1183 ft 58 kts 85°
2026-04-28 02:11 50.94377 3.47657 943 ft 63 kts 96°
2026-04-28 02:11 50.94080 3.48001 37 ft 0 kts 209°